Regional Weather Roundup
Issued by NWS

Home | Current Version | Previous Version | Graphics & Text | Print | Product List | Glossary On
Versions: 1 2 3 4 5 6 7 8 9 10 11 12 13 14 15 16 17 18 19 20 21 22 23 24 25 26 27 28 29 30 31 32 33 34 35 36 37 38 39 40 41 42 43 44 45 46 47 48 49 50
000
ASUS43 KFSD 200502
RWRSD

WEATHER ROUNDUP FOR SOUTH DAKOTA
NATIONAL WEATHER SERVICE SIOUX FALLS SD
1200 AM CDT SAT SEP 20 2014

NOTE: "FAIR" INDICATES FEW OR NO CLOUDS BELOW 12,000 FEET WITH NO
SIGNIFICANT WEATHER AND/OR OBSTRUCTIONS TO VISIBILITY.


SDZ001>005-009-010-012>017-200600-
NORTHWEST AND NORTH CENTRAL SOUTH DAKOTA

CITY           SKY/WX    TMP DP  RH WIND       PRES   REMARKS
FAITH            N/A     64  50  60 W10       29.90R
MOBRIDGE       MOCLDY    60  55  83 NW5       29.80R
$$

SDZ012>016-024>037-041>051-057-063-072>074-200600-
SOUTHWEST AND SOUTH CENTRAL SOUTH DAKOTA

CITY           SKY/WX    TMP DP  RH WIND       PRES   REMARKS
RAPID CTY ARPT MOCLDY    66  49  54 NW10      29.97R
PIERRE         MOCLDY    70  52  52 NW13      29.82R
CUSTER         CLOUDY    60  44  55 VRB5      30.09R
ELLSWORTH AFB  MOCLDY    64  49  57 NW7       29.97R
PHILIP         PTCLDY    60  52  74 W7        29.89R
PINE RIDGE     CLEAR     55  52  89 CALM      29.96R
WINNER         FAIR      70  58  65 S5        29.84F
$$

SDZ004>011-016>023-039-040-200600-
NORTHEAST SOUTH DAKOTA

CITY           SKY/WX    TMP DP  RH WIND       PRES   REMARKS
ABERDEEN       MOCLDY    69  53  56 NW16      29.75R
WATERTOWN      PTCLDY    66  57  72 W6        29.73S
SISSETON         N/A     70  53  54 NW13      29.68S
$$

SDZ017-020-022-023-036>040-048>070-200600-
SOUTHEAST SOUTH DAKOTA

CITY           SKY/WX    TMP DP  RH WIND       PRES   REMARKS
SIOUX FALLS    CLOUDY    74  62  66 W7        29.75R
HURON          PTCLDY    63  54  72 NW10      29.75R
CHAMBERLAIN    MOCLDY    70  55  59 NW9       29.80R
MITCHELL       CLEAR     66  59  78 W6        29.76R
YANKTON        CLOUDY    72  64  78 W5        29.75S
$$

ABBREVIATIONS USED IN REMARKS
   TC - TEMPERATURE IN CELSIUS
  WCI - WIND CHILL INDEX
   HX - HEAT INDEX
  VSB - VISIBILITY




USA.gov is the U.S. government's official web portal to all federal, state and local government web resources and services.